GEFSSE_500_meanwind_000.txt.gz
Wind_Speed
19 20 20 18 16 16 16 15 14 12 11 12 12 12 12 12 12 12 12 12 12 13 12 11 10 11 10 10 11 12 12 12 12 13 13 14 15 17 20 24 25 23 22
22 23 21 20 19 18 17 15 13 13 13 14 14 14 15 15 15 16 16 16 15 16 15 15 14 14 12 11 12 13 14 13 13 14 15 15 16 17 18 21 26 27 26
23 23 22 21 20 19 18 16 15 15 16 17 17 17 17 17 18 18 19 19 18 17 16 17 17 15 13 14 13 13 14 14 14 15 16 16 17 18 19 20 22 26 28
24 24 23 21 19 18 17 17 17 17 17 18 19 19 19 19 20 20 21 21 20 19 18 18 18 17 14 14 15 15 14 15 14 15 16 17 18 18 19 21 22 25 26
25 24 21 18 17 18 18 19 19 19 19 20 20 21 22 22 22 22 22 22 22 21 20 20 19 17 15 14 14 15 14 15 15 15 16 16 18 18 18 19 21 24 25
24 22 20 20 21 22 23 23 23 23 23 23 23 23 23 23 23 23 23 23 23 22 21 21 20 19 17 15 14 15 14 14 14 15 15 15 16 18 18 17 17 19 23
22 22 23 24 25 25 25 25 25 25 26 25 25 25 25 24 24 24 24 24 24 24 24 23 22 21 19 16 15 15 15 14 15 16 15 15 15 16 19 18 16 15 18
24 24 25 25 26 26 26 26 27 27 28 28 27 27 27 27 27 27 27 27 27 27 26 24 23 22 20 18 17 18 17 16 17 17 16 15 14 15 18 21 20 17 16
25 26 27 27 28 28 29 29 30 30 29 29 29 28 29 28 28 28 28 28 27 26 25 25 23 22 21 20 20 20 19 20 20 19 18 18 17 16 17 20 24 23 20
27 27 28 29 29 30 30 30 30 30 29 29 29 30 30 29 29 28 28 27 26 25 25 24 24 23 23 23 23 22 22 22 22 22 21 21 21 20 19 19 22 25 24
28 28 28 28 29 29 28 28 28 28 28 28 30 31 31 31 30 29 28 28 28 27 26 26 27 27 27 27 28 28 27 26 25 25 25 25 25 24 23 23 22 22 24
26 26 25 25 26 27 27 27 26 26 26 27 28 29 29 30 31 31 30 30 30 30 30 31 32 32 32 33 34 34 32 32 31 31 30 30 30 28 27 26 26 25 25
24 25 25 26 27 28 28 29 29 30 30 30 31 32 32 33 34 35 35 35 35 36 36 37 37 38 39 39 39 39 37 38 37 36 35 34 35 33 31 30 31 30 30
26 27 28 28 29 29 30 30 31 33 35 36 37 38 39 40 41 41 42 42 43 43 43 43 43 44 44 45 45 45 44 43 43 41 40 38 38 37 35 33 33 32 32
26 26 27 28 29 29 30 31 32 32 33 34 36 37 38 40 42 43 44 44 45 45 46 46 47 48 48 48 49 49 49 48 48 46 44 41 40 40 38 35 35 35 34
26 28 30 32 34 35 36 36 36 36 36 37 37 37 38 39 40 41 43 44 44 44 44 45 46 48 50 50 51 51 51 50 50 49 46 44 43 42 40 39 38 37 38
30 32 34 35 38 40 41 42 42 43 43 43 43 43 44 43 43 44 46 47 47 46 45 46 47 49 51 51 52 52 52 51 51 50 49 47 45 44 43 42 42 42 42
34 37 39 40 42 44 45 46 47 48 48 49 49 50 50 50 50 50 50 51 50 49 49 50 49 50 51 51 53 54 54 54 53 52 51 49 48 46 45 45 45 45 44
41 43 45 47 48 49 50 51 51 52 52 52 53 53 53 53 53 55 55 54 52 51 52 52 51 51 51 51 53 54 55 56 56 54 52 51 50 48 47 47 47 47 46
46 47 49 50 52 53 55 56 57 56 56 56 55 56 55 55 55 56 57 57 55 54 52 51 51 51 51 52 54 55 56 57 58 56 55 53 53 50 48 48 48 48 48
48 49 50 52 54 56 57 58 59 59 59 59 58 58 57 56 56 56 55 55 54 52 50 49 51 53 52 53 54 55 56 58 59 57 57 56 55 52 50 50 49 49 50
51 52 52 53 54 56 57 59 60 62 62 61 60 59 58 57 57 56 54 53 51 50 49 50 52 54 54 54 54 55 57 59 60 58 57 57 56 54 52 50 50 50 50
52 52 53 53 55 56 58 60 62 64 64 64 62 61 60 58 57 56 53 51 49 50 50 50 52 53 52 52 52 53 54 56 56 56 54 55 54 51 51 51 51 51 51
56 56 56 56 56 56 56 58 61 63 63 63 63 62 61 59 56 54 53 52 52 51 51 52 53 53 54 53 51 50 50 51 52 52 50 51 52 53 52 53 54 54 55
64 65 65 66 64 63 61 60 61 63 64 64 63 62 61 58 56 54 54 55 52 51 51 52 53 55 56 55 52 52 51 50 50 50 52 53 52 54 56 56 56 56 57
74 74 75 76 74 72 68 63 63 64 64 63 61 60 58 56 54 53 53 54 52 52 52 52 53 56 58 57 54 51 51 52 51 52 53 51 50 53 54 55 55 57 60

GEFSSE_500_meanwind_006.txt.gz
Wind_Speed
19 19 19 20 21 22 23 23 21 20 18 15 14 13 12 12 13 13 13 13 12 12 12 12 12 12 12 13 12 11 10 11 12 11 11 11 11 11 12 13 16 19 21
22 23 24 25 25 25 25 25 24 22 20 17 16 16 16 16 16 16 17 16 16 16 15 15 15 15 14 14 13 13 12 13 12 12 12 13 13 13 13 14 14 15 19
25 27 28 27 27 26 27 27 26 23 20 18 18 18 19 19 19 19 19 19 19 19 18 18 17 16 16 15 14 13 14 14 14 14 14 14 14 14 14 15 15 15 16
27 28 28 28 28 27 27 27 24 22 20 20 20 21 21 21 21 21 22 22 22 22 21 20 19 18 17 16 14 14 14 15 16 16 15 15 15 14 14 14 15 16 16
28 28 29 29 28 26 25 24 21 22 22 23 24 23 23 23 23 23 23 23 23 23 22 22 20 19 18 17 15 15 15 16 17 17 16 15 15 14 13 15 15 16 16
29 29 30 28 27 26 24 23 23 25 26 27 27 26 25 24 24 24 24 23 23 23 23 22 21 20 19 18 18 17 16 16 17 17 16 14 13 13 13 13 15 15 15
31 30 29 29 27 26 26 26 27 27 28 27 27 27 27 25 24 24 24 24 24 23 23 23 23 22 22 21 20 19 17 18 17 16 14 13 13 12 12 12 13 14 14
31 30 27 28 27 27 28 29 29 29 29 29 29 28 28 27 26 26 26 25 25 25 24 24 25 25 24 24 23 22 19 18 17 16 14 13 13 12 12 12 12 13 14
31 32 31 29 29 29 29 30 30 31 31 30 31 30 30 29 28 27 27 26 26 26 26 26 25 25 25 25 24 23 22 20 20 19 18 16 15 13 13 13 13 14 14
33 33 33 31 29 29 30 30 31 31 30 29 29 29 29 28 28 28 28 28 28 28 28 27 26 25 25 25 24 24 23 22 22 22 21 19 19 16 15 15 14 15 16
32 32 33 32 30 29 28 27 28 27 26 25 25 25 26 26 27 28 29 28 30 30 29 29 28 27 26 26 25 25 24 25 24 24 24 22 23 21 20 19 18 18 18
28 27 29 29 28 27 25 24 23 24 25 26 25 25 26 27 27 28 28 29 29 29 30 30 30 29 28 28 27 27 27 28 28 28 27 27 27 26 25 25 24 23 22
26 25 26 26 25 24 24 24 23 24 24 26 26 27 28 29 30 31 31 32 32 32 32 33 33 33 33 33 32 32 32 32 33 34 33 32 32 31 31 30 29 29 28
27 27 28 28 27 26 26 26 25 25 25 26 27 27 28 29 31 31 32 33 35 36 38 38 38 39 39 39 40 40 40 39 39 40 39 38 38 36 36 35 34 34 34
30 30 31 30 29 29 29 29 30 30 30 31 32 32 32 33 33 34 34 35 35 36 37 38 40 42 43 44 45 45 45 44 44 44 43 42 43 42 41 40 39 39 39
32 32 32 33 33 33 34 34 35 35 36 36 37 38 38 39 39 39 39 38 38 38 39 39 39 40 41 42 44 44 44 44 45 44 44 44 45 45 45 45 44 44 43
32 33 34 36 37 38 39 39 40 40 41 42 43 45 46 46 46 46 45 44 44 43 43 43 43 43 44 44 45 46 46 45 46 46 45 44 45 46 46 46 47 47 46
34 36 38 40 42 44 46 47 48 48 48 49 50 51 52 52 52 52 51 50 50 50 49 49 49 49 49 49 49 49 50 49 49 49 49 47 47 47 47 48 48 48 48
40 43 45 47 48 50 51 53 53 54 54 54 54 55 56 57 57 57 56 56 56 55 55 54 54 54 54 53 53 54 54 53 53 52 51 50 49 49 49 50 50 50 49
45 47 48 50 51 52 54 56 57 57 58 58 59 59 60 60 61 60 60 60 59 59 59 59 59 59 58 57 57 57 57 57 56 54 52 51 51 51 51 52 52 52 51
48 49 50 50 51 53 55 56 57 58 59 60 61 62 63 63 62 62 62 61 61 61 61 61 61 61 61 61 61 61 61 60 58 56 54 53 53 53 53 52 52 52 52
49 52 53 52 52 53 54 55 56 57 58 59 59 60 61 62 62 62 62 62 61 60 60 61 62 62 63 63 62 62 62 62 61 59 56 54 52 53 54 53 53 53 53
53 55 57 59 60 60 61 62 63 63 63 64 65 65 64 64 63 63 63 62 61 61 61 61 62 63 63 63 63 62 63 63 62 61 60 57 51 49 51 52 53 53 53
60 62 65 67 68 70 71 72 73 73 72 71 71 72 71 70 69 69 68 66 64 63 63 63 63 63 63 63 62 62 63 63 62 61 61 61 59 57 56 55 56 56 57
70 72 74 75 76 78 79 80 80 79 78 77 76 76 76 75 73 72 70 68 67 65 64 63 63 63 63 63 62 62 62 62 62 62 61 61 62 62 62 61 60 60 59
79 81 82 83 84 84 84 84 83 81 78 77 75 73 74 76 75 71 69 68 67 65 63 62 62 62 62 63 63 61 60 60 60 60 61 62 62 62 62 61 60 59 58

GEFSSE_500_meanwind_012.txt.gz
Wind_Speed
17 17 17 17 17 18 19 20 21 21 21 21 21 20 18 16 16 15 15 15 15 15 14 14 13 13 13 12 11 11 11 10 10 10 9 9 9 9 10 10 11 13 16
19 19 19 20 21 22 22 23 23 23 23 23 23 22 20 18 18 18 18 18 19 19 18 17 16 16 16 15 14 14 13 12 12 12 11 11 11 11 11 12 12 11 12
21 22 22 23 23 24 24 24 24 25 25 24 24 24 22 20 19 19 19 20 21 21 21 21 19 18 19 18 17 16 15 14 13 13 13 13 13 12 13 13 13 12 12
21 22 23 24 25 25 25 24 25 25 25 24 23 23 23 22 21 20 21 21 22 23 23 23 22 21 21 21 20 18 17 15 14 14 15 15 15 13 13 13 13 13 13
24 25 26 26 26 26 25 25 25 25 25 24 23 23 23 23 23 23 23 24 24 24 24 24 24 23 23 22 21 20 18 16 15 15 16 16 15 14 14 14 14 14 13
24 26 27 27 27 27 27 26 26 26 26 26 25 25 25 25 25 25 25 25 25 25 25 25 25 24 24 23 22 21 20 18 17 17 17 17 15 14 15 15 15 14 14
23 25 27 27 27 28 28 28 28 28 28 28 28 28 27 27 27 26 26 26 26 26 26 25 25 25 25 24 24 23 22 21 19 18 18 18 16 16 15 15 15 15 14
25 25 26 28 29 29 30 30 30 30 31 31 31 31 30 30 29 28 28 27 27 27 27 27 27 26 26 26 26 26 25 23 22 21 20 20 18 16 16 15 15 14 13
29 29 29 30 32 33 33 33 33 33 34 33 33 33 32 32 31 30 29 29 29 29 29 29 29 28 28 28 28 28 27 26 25 24 23 22 21 19 17 16 15 14 13
32 32 32 33 33 33 34 35 35 35 35 35 35 34 33 32 31 30 30 29 29 29 30 30 29 29 29 29 28 28 27 26 26 25 25 25 25 23 20 19 17 16 15
32 31 31 32 31 30 30 32 34 35 35 35 35 34 32 31 30 29 29 28 29 29 29 29 29 30 29 29 28 27 26 26 26 25 26 27 27 26 23 21 20 19 17
31 30 29 30 30 29 28 29 31 33 34 35 35 34 32 31 30 29 29 28 28 28 28 28 29 29 29 29 29 28 27 27 25 25 25 27 28 28 26 24 23 22 21
29 29 29 30 31 31 31 30 31 32 34 35 35 35 34 34 33 32 32 31 31 30 30 30 30 30 30 29 29 29 29 29 27 26 26 27 28 29 28 28 26 26 25
32 32 32 33 34 35 35 34 33 33 35 37 38 38 38 37 36 36 36 35 34 34 34 35 35 34 34 33 32 32 32 32 31 31 30 30 31 31 31 31 30 30 30
36 35 35 36 37 38 38 38 38 37 37 38 39 39 40 40 40 39 39 38 38 38 37 37 37 37 37 37 37 37 37 36 37 36 36 36 36 36 36 35 35 34 34
36 37 37 38 40 41 41 41 41 41 41 41 41 41 42 42 43 43 43 43 42 42 41 40 40 40 40 39 39 39 39 39 39 40 40 41 42 42 42 41 40 40 40
37 38 38 39 41 42 43 43 43 43 44 44 44 45 46 46 46 46 47 47 47 46 46 45 44 44 44 44 43 43 42 42 41 41 41 42 42 42 42 42 42 42 42
41 43 44 44 45 46 47 49 50 50 50 51 51 51 51 51 52 52 52 52 52 52 51 51 50 50 49 49 48 48 47 46 46 45 45 44 43 43 43 43 42 42 42
44 46 47 49 49 50 51 53 54 55 55 55 56 57 57 57 58 58 58 58 58 57 57 56 56 56 55 54 54 53 53 52 51 50 50 49 48 47 47 46 46 45 44
46 47 49 50 51 52 52 52 53 56 57 58 58 59 60 61 61 62 63 63 63 63 62 62 62 61 61 60 59 58 58 57 56 56 55 54 53 52 51 51 50 49 48
48 50 52 53 55 56 56 56 57 58 60 61 62 63 63 62 62 62 63 65 66 67 67 67 66 66 66 65 64 63 63 62 61 60 60 59 58 57 56 56 54 53 51
54 57 59 62 63 64 65 65 64 64 65 66 67 67 68 67 67 66 65 66 67 67 68 68 68 67 68 68 68 67 66 65 65 64 64 63 62 61 60 59 58 56 54
63 64 65 67 69 71 71 71 71 70 70 72 72 72 73 73 73 72 72 71 70 71 71 71 70 69 68 68 67 67 67 67 67 66 66 66 65 63 62 61 59 58 57
70 70 70 70 72 74 76 78 78 77 76 77 77 77 77 78 78 78 78 77 76 76 76 76 75 74 72 70 69 68 67 66 66 65 66 66 65 65 63 62 60 59 58
75 74 74 74 76 78 81 82 83 82 81 80 80 80 79 79 79 79 80 81 81 80 80 81 81 80 78 76 74 72 70 68 67 66 66 65 65 65 64 62 60 59 58
79 79 79 80 81 82 82 82 81 79 77 75 75 76 76 76 76 77 80 81 82 81 82 82 83 83 82 80 78 77 75 73 71 70 68 67 66 65 65 64 63 61 59

GEFSSE_500_meanwind_018.txt.gz
Wind_Speed
22 22 21 21 20 20 20 20 20 20 19 19 19 18 17 17 18 18 17 17 16 16 16 15 15 14 14 13 12 11 10 9 8 8 9 9 9 9 9 10 10 11 15
24 23 24 23 22 22 23 23 23 23 22 22 22 21 21 20 20 20 20 20 20 19 19 19 19 18 18 17 15 14 13 12 12 11 11 11 11 11 11 11 11 12 13
24 24 25 25 26 26 26 26 26 25 25 25 25 24 24 23 23 22 23 23 23 22 22 22 22 21 21 20 19 18 17 15 14 14 14 14 13 13 13 13 13 14 14
23 24 25 26 26 27 28 28 28 28 27 27 27 26 26 25 25 25 25 26 26 25 24 24 24 24 24 24 23 22 20 19 17 16 16 16 16 15 15 15 15 16 17
21 23 24 25 27 28 29 29 29 29 29 28 28 28 27 27 27 27 27 27 27 27 26 26 26 27 27 27 26 25 24 22 20 19 19 18 18 18 18 18 17 17 18
21 22 24 25 27 28 29 29 30 30 29 29 29 29 29 29 29 29 29 29 29 29 28 28 29 29 29 29 29 28 27 24 23 22 21 21 20 20 19 19 19 19 19
21 22 24 25 27 28 29 30 30 31 31 32 31 31 32 31 31 31 31 31 31 31 31 30 30 30 30 31 31 30 29 26 25 24 24 23 22 22 21 20 20 20 20
24 25 27 28 29 31 32 32 33 34 34 35 35 35 35 34 34 34 34 33 33 33 33 32 32 31 31 31 31 31 31 28 26 25 26 26 25 24 23 22 21 21 21
29 30 31 32 33 34 35 36 36 37 37 38 38 38 38 38 37 37 37 36 35 35 35 35 35 34 33 32 32 32 32 30 28 27 27 27 27 26 25 24 23 22 21
30 32 33 34 34 36 37 38 38 38 38 38 38 39 40 40 40 40 40 39 38 38 38 38 37 37 36 34 34 34 33 32 30 29 29 29 29 29 28 26 25 24 22
31 31 32 33 33 34 36 37 38 38 38 37 38 38 39 40 41 41 42 41 41 41 41 41 40 40 38 37 36 36 35 34 33 31 30 31 31 31 30 29 28 26 24
32 32 33 33 34 35 37 38 38 39 39 40 39 39 39 39 40 41 42 42 43 43 42 42 42 42 41 40 39 38 37 37 35 33 31 31 32 33 32 31 30 29 26
35 35 35 36 37 38 39 41 42 42 43 43 43 43 42 42 42 41 41 42 42 42 43 43 43 43 42 42 42 41 40 39 38 36 34 32 32 33 33 31 31 30 29
36 36 37 38 39 40 41 42 44 45 46 46 47 47 46 46 46 45 44 43 43 42 43 44 44 43 43 43 43 43 42 41 40 38 36 34 34 33 33 31 31 31 30
40 41 42 43 44 44 45 45 46 46 47 48 49 50 50 50 49 49 48 47 46 44 44 44 45 45 45 45 45 44 43 42 41 40 38 37 36 35 34 33 32 31 31
44 46 47 48 48 49 50 51 52 52 51 51 51 52 52 53 53 52 52 51 50 49 48 47 47 48 48 47 47 47 46 45 43 42 41 39 39 38 37 36 35 34 33
48 50 51 52 53 54 54 55 56 57 57 57 57 56 56 55 55 55 55 54 53 53 52 51 51 50 50 50 50 50 50 49 47 46 45 43 42 42 41 40 39 38 37
52 54 56 57 58 59 60 60 60 61 61 62 61 61 61 61 60 60 59 58 57 56 56 55 55 54 53 53 53 53 53 52 51 50 49 48 47 46 45 45 44 43 42
58 60 61 63 64 64 65 65 65 65 65 65 65 65 64 64 64 65 64 64 63 61 60 59 59 58 58 57 57 56 56 55 54 53 51 50 49 49 48 48 48 47 45
66 67 68 68 69 69 69 69 69 69 68 68 68 68 68 67 66 67 67 67 67 66 65 64 63 62 61 61 61 61 60 59 58 56 55 54 52 51 50 49 49 48 47
75 76 76 75 75 74 74 74 74 74 74 73 73 72 72 71 70 70 70 69 69 69 68 68 68 67 66 65 65 64 64 63 62 61 60 58 57 55 54 53 51 51 49
83 83 82 82 81 80 80 79 79 80 80 80 79 78 77 76 76 76 76 75 75 74 73 72 72 71 70 68 68 68 67 67 65 65 64 63 62 60 59 57 56 55 54
87 87 88 87 87 86 85 85 84 83 84 85 85 84 83 83 82 82 82 82 82 81 79 78 77 77 75 73 72 71 70 69 68 68 67 66 66 65 64 63 61 59 58
86 86 84 82 81 80 79 80 81 82 83 85 86 87 87 87 87 87 87 87 88 87 87 85 83 82 81 79 77 75 73 71 70 69 69 69 69 69 68 67 66 64 63
77 73 68 65 63 62 61 61 62 63 65 68 74 79 82 84 86 87 88 89 90 91 91 90 89 87 86 84 82 80 78 76 74 71 69 68 69 69 70 70 69 68 67
60 56 54 52 51 51 51 50 49 46 43 43 46 52 59 66 70 74 78 81 84 86 89 90 90 90 89 88 87 85 83 81 79 76 73 71 70 70 69 70 70 70 70

GEFSSE_500_meanwind_024.txt.gz
Wind_Speed
24 25 25 26 26 25 25 25 25 24 25 24 24 23 22 21 20 19 18 18 18 19 18 18 17 17 16 16 16 15 15 14 14 13 12 12 11 11 10 11 12 15 19
23 24 25 26 27 28 28 28 28 28 28 28 28 27 26 25 24 23 22 22 21 22 22 22 22 21 21 20 19 19 18 17 17 16 16 15 14 14 13 12 13 14 16
22 22 23 25 27 28 30 31 31 32 32 32 31 31 30 29 28 27 26 25 25 25 25 25 26 26 25 24 23 22 21 21 20 20 19 18 17 16 15 15 15 15 16
19 20 22 24 26 28 29 30 32 33 34 34 34 33 33 32 31 31 30 28 28 27 28 28 29 29 29 28 27 26 25 24 24 23 22 21 20 20 19 18 17 17 17
17 19 21 23 24 26 28 29 31 32 34 35 35 35 35 34 34 33 32 31 30 30 30 31 32 32 32 32 31 30 29 28 27 26 25 24 24 23 22 21 20 19 19
18 20 22 24 25 27 28 30 31 32 34 35 36 36 36 36 36 35 34 34 33 33 33 33 34 34 35 35 34 33 32 31 30 29 29 27 26 26 25 24 23 22 21
22 23 25 27 28 30 31 32 33 34 35 36 37 38 38 38 37 37 37 37 36 36 35 35 36 36 36 37 37 37 36 34 33 33 32 30 29 28 28 27 26 24 23
25 27 29 31 33 34 36 37 38 39 40 40 40 41 41 41 41 40 40 40 40 39 39 39 39 38 38 38 39 39 38 37 36 35 34 33 32 31 30 30 28 27 26
25 27 29 30 32 34 36 37 39 40 42 43 43 44 45 45 45 45 44 44 43 43 42 42 42 42 41 41 41 41 40 39 39 38 37 36 34 33 33 31 30 29 28
27 29 30 32 34 36 38 39 40 41 42 42 43 44 45 46 47 48 48 48 47 47 46 46 45 45 44 43 43 43 42 42 41 41 39 38 36 35 35 33 31 30 30
29 31 33 34 36 38 40 41 43 44 45 46 46 46 46 46 46 47 48 49 50 50 49 49 48 48 47 46 46 45 45 44 43 43 42 40 39 38 37 35 33 32 32
34 36 38 40 42 43 45 46 47 47 48 49 50 50 50 50 49 48 48 49 49 50 51 51 51 50 50 49 49 49 48 47 46 46 45 42 41 40 39 38 35 35 34
39 41 44 46 47 49 50 51 52 53 53 54 54 53 53 53 53 52 52 51 50 50 51 52 52 52 52 52 52 51 50 49 49 49 48 46 44 43 42 41 38 37 36
44 47 49 52 53 55 56 56 57 57 58 58 59 59 58 58 57 56 55 55 54 53 52 52 53 53 54 54 53 53 52 52 52 51 50 49 47 46 45 44 42 39 38
51 55 58 60 62 63 64 65 66 65 65 64 64 64 63 62 61 61 60 59 58 57 56 56 55 55 55 55 55 54 53 54 54 53 53 52 50 49 48 46 45 42 40
59 62 65 67 69 70 72 73 74 74 74 73 72 71 70 69 67 65 64 64 63 62 61 60 60 59 58 57 56 55 55 55 55 55 55 54 53 52 51 49 48 45 43
66 69 71 74 76 78 80 81 82 83 82 82 80 79 77 76 74 71 69 67 67 66 66 65 64 64 62 61 59 58 57 57 57 57 57 57 56 55 53 52 50 48 46
73 76 79 80 82 84 86 87 88 87 87 86 84 83 82 81 80 79 76 73 71 70 69 69 68 68 67 66 64 62 60 58 58 59 58 58 58 57 56 54 53 51 50
77 79 81 82 83 85 86 87 87 86 84 83 81 80 80 82 82 82 81 78 76 74 73 72 71 71 70 69 68 66 64 61 59 60 60 59 60 59 58 57 56 54 53
79 80 81 82 83 82 81 78 75 73 70 69 68 67 69 73 78 83 84 83 81 78 76 75 74 73 72 72 71 70 68 66 64 62 62 61 61 60 60 59 58 57 55
79 80 80 80 77 73 68 63 59 55 51 49 49 50 53 57 64 75 84 86 85 83 81 79 78 77 75 74 73 72 71 70 68 66 64 64 63 62 61 61 60 59 58
80 79 77 73 67 62 58 54 50 45 43 43 44 45 45 47 50 57 69 82 89 88 86 84 82 80 78 77 76 75 74 73 71 70 68 66 65 65 64 63 62 62 61
78 74 69 63 58 55 52 49 46 45 45 45 44 44 45 45 45 46 53 64 80 90 91 89 87 85 83 80 79 78 76 75 75 73 71 70 68 67 67 66 65 64 63
74 67 61 56 54 52 51 49 47 46 45 45 44 44 44 44 44 44 44 49 60 77 90 93 92 90 87 84 82 81 79 78 77 76 75 73 72 71 70 69 68 67 66
68 61 56 54 53 52 52 51 50 50 49 48 47 46 44 43 43 42 41 41 45 56 72 87 93 93 92 89 86 84 83 82 80 79 78 76 75 73 72 71 70 69 68
62 57 54 54 54 55 54 54 54 54 54 52 51 49 46 44 42 41 39 38 37 41 51 65 80 89 93 92 90 88 86 85 83 82 81 79 78 76 74 74 73 72 71

GEFSSE_500_meanwind_030.txt.gz
Wind_Speed
23 25 27 29 31 32 33 34 33 33 32 31 30 29 29 28 27 27 26 26 25 25 25 26 26 25 23 23 22 21 19 18 17 16 14 13 11 10 9 8 10 12 15
24 26 28 29 31 33 35 36 37 37 37 36 35 34 33 33 32 32 31 31 30 30 29 29 29 29 28 27 26 24 23 22 20 19 17 16 15 13 12 11 11 11 13
21 23 25 27 29 31 33 35 37 38 39 40 39 39 38 38 37 36 36 35 35 34 33 33 32 32 32 31 30 28 27 25 24 22 21 20 18 17 15 14 13 13 13
18 19 20 22 24 26 28 30 32 34 36 37 39 40 40 40 40 40 40 39 39 38 37 36 36 35 35 35 35 33 31 29 28 26 24 23 22 20 19 18 16 16 15
18 20 21 22 23 25 27 28 30 31 32 34 35 37 39 40 40 41 41 42 42 41 40 40 39 38 38 38 38 38 36 34 32 30 28 27 25 24 22 21 20 19 18
20 21 23 24 26 27 29 31 32 34 35 36 37 38 39 40 41 41 42 42 43 43 43 43 42 41 41 41 41 41 40 39 37 34 32 30 29 28 26 24 23 22 21
20 22 23 25 27 29 30 32 34 35 37 38 40 41 42 43 44 44 44 44 44 45 45 45 45 44 43 43 42 43 43 42 41 38 36 34 33 32 30 28 27 26 25
23 25 27 28 30 32 34 35 37 38 40 41 42 43 44 45 46 47 48 48 48 48 47 47 47 46 46 45 44 44 44 44 43 42 40 38 37 36 34 32 31 29 28
28 30 33 35 37 39 41 42 43 44 45 46 47 47 48 48 49 49 49 50 51 51 52 51 50 49 49 48 47 46 45 45 45 45 44 43 41 39 37 35 34 33 31
34 37 40 43 45 47 49 51 52 53 54 54 54 54 54 54 53 53 53 53 53 53 53 54 54 54 52 52 50 49 48 47 47 47 47 46 45 43 41 39 37 36 34
40 44 47 50 52 55 57 58 60 61 62 62 62 62 61 61 60 59 58 57 56 56 56 55 55 56 57 56 55 53 52 50 49 49 49 49 48 46 44 42 40 39 38
46 50 53 56 59 61 63 65 67 68 69 69 70 69 68 67 67 66 64 63 61 60 59 58 58 57 58 59 59 58 56 54 53 53 52 52 51 48 46 44 43 42 40
51 55 58 61 64 67 69 71 73 74 75 75 76 76 75 74 72 71 70 69 68 66 64 63 61 61 60 60 60 61 60 59 58 57 56 55 54 52 49 47 46 45 43
56 60 63 66 69 72 74 76 77 78 79 80 80 81 80 79 77 75 74 73 72 72 70 67 66 65 63 63 62 62 62 63 62 61 60 58 57 55 53 50 48 47 46
61 65 69 72 74 76 78 79 80 81 81 82 82 83 83 82 81 80 78 77 76 75 74 73 71 69 68 66 65 65 64 64 64 64 63 61 60 59 57 55 52 51 49
67 70 73 76 78 80 81 82 82 83 83 84 84 85 85 85 85 83 81 79 78 77 77 77 76 74 72 71 69 68 67 66 65 65 65 64 63 62 61 59 57 55 53
71 75 77 79 81 83 84 85 86 87 88 87 86 83 81 79 79 78 76 76 75 75 76 78 79 79 77 75 73 72 70 70 67 65 65 66 65 64 64 62 60 58 57
75 78 80 82 83 84 85 86 87 86 83 79 74 70 66 64 64 64 64 65 66 67 70 73 77 80 80 79 78 76 75 73 71 69 67 66 65 64 65 66 64 62 60
78 81 83 84 84 85 85 83 80 75 70 65 61 58 56 54 53 53 53 54 56 58 62 66 71 76 80 82 82 80 79 77 75 73 70 67 66 65 64 66 67 65 63
81 82 84 85 85 84 80 75 70 65 62 58 56 55 53 52 51 50 49 49 49 50 53 59 65 71 78 82 84 84 82 81 79 77 75 71 67 66 64 63 66 68 66
82 83 84 84 83 80 75 71 67 63 60 58 57 56 55 54 53 53 51 50 49 48 48 50 55 64 73 80 84 86 85 84 82 81 79 76 71 68 66 63 63 67 68
83 83 83 82 80 77 73 70 68 65 62 60 59 58 57 57 56 56 54 53 52 50 49 49 50 53 61 73 82 87 87 86 87 85 83 80 77 72 69 66 64 63 68
83 83 82 80 77 74 71 68 64 61 59 56 54 53 53 54 55 56 56 56 55 53 52 51 50 50 52 58 72 83 89 90 89 87 86 84 82 79 74 69 67 64 65
82 82 80 77 74 71 67 64 60 57 55 53 51 49 48 48 48 50 53 55 56 56 55 53 52 51 50 51 58 71 84 90 92 90 88 87 85 82 78 75 70 67 65
81 80 77 74 70 66 63 61 59 57 55 53 51 50 48 46 46 46 47 49 52 55 57 57 55 53 51 50 51 59 73 85 91 93 90 88 87 84 80 78 75 72 69
80 78 74 70 66 63 62 61 59 58 57 54 52 50 47 45 44 44 44 45 46 50 53 56 56 55 53 51 50 52 60 75 87 92 92 90 89 86 81 77 77 76 74

GEFSSE_500_meanwind_036.txt.gz
Wind_Speed
14 17 19 21 23 25 27 28 30 32 33 35 37 38 38 39 39 38 37 36 35 34 34 33 32 31 31 31 30 29 28 28 26 25 23 21 19 17 16 16 17 19 22
11 13 15 16 18 20 23 25 27 29 32 34 36 39 41 42 43 43 43 42 41 40 39 38 37 36 35 35 34 33 32 31 30 29 27 25 23 21 19 18 17 18 20
10 12 13 15 17 18 20 22 24 26 28 30 33 36 38 41 43 45 46 47 47 46 45 44 42 41 40 39 38 37 36 35 34 33 31 29 27 25 23 21 19 19 19
11 13 15 16 18 20 21 23 25 26 28 30 31 33 35 37 40 42 45 47 49 50 50 50 48 46 45 44 42 41 40 40 38 37 35 34 31 29 27 25 23 21 21
13 15 16 18 20 22 24 26 27 29 31 32 33 35 36 38 39 40 42 44 47 49 51 52 53 52 51 49 47 46 45 44 43 41 40 38 36 34 31 29 26 25 23
16 18 20 23 25 27 29 31 33 35 36 37 38 40 40 41 42 43 44 45 46 47 49 51 53 55 55 54 53 51 50 48 47 46 45 43 41 38 36 33 31 29 27
20 23 26 28 31 33 35 37 39 41 43 44 45 46 47 47 48 48 48 49 49 49 50 51 52 54 56 57 56 55 54 53 51 49 48 47 45 43 41 38 35 32 31
26 29 32 34 37 40 42 45 47 49 50 52 53 54 55 55 56 55 55 55 55 54 54 53 53 54 55 57 58 58 58 57 55 53 52 51 49 48 46 43 40 37 34
31 34 37 40 44 47 49 52 54 56 58 60 61 62 63 64 64 64 63 62 61 60 60 59 57 57 57 58 59 59 59 59 58 56 55 54 53 52 50 48 45 41 39
37 40 43 46 50 53 56 59 61 64 66 68 69 70 71 72 72 72 71 71 69 68 66 64 63 62 61 60 60 61 61 61 60 59 57 56 55 55 54 53 50 46 43
43 46 49 52 55 58 61 64 67 69 72 74 76 77 78 79 79 79 79 78 76 75 73 71 69 67 66 64 63 62 63 63 63 61 60 58 58 57 57 56 55 52 48
47 50 53 56 59 62 65 68 70 73 76 78 80 81 83 84 85 85 84 84 83 81 78 76 74 72 71 69 68 67 65 64 65 64 62 61 59 59 58 59 58 56 53
50 54 57 60 63 66 69 71 74 77 79 82 84 85 86 88 89 89 89 89 87 85 83 81 79 77 75 74 73 71 69 67 66 66 66 64 62 61 60 61 61 59 57
54 57 60 63 66 70 73 76 79 81 84 86 88 90 92 93 94 94 94 93 92 90 88 85 83 81 79 78 77 76 74 72 70 68 68 68 66 63 62 62 62 62 60
57 60 63 67 71 74 77 80 82 85 88 91 93 94 95 96 96 95 94 93 92 91 91 89 88 86 84 82 80 80 79 77 74 72 70 70 69 67 65 63 63 63 62
59 63 67 71 74 77 80 84 87 90 92 94 94 92 90 89 87 86 85 84 83 83 83 84 85 85 86 86 84 83 82 81 79 76 73 72 72 71 69 67 66 65 64
63 67 71 74 77 81 85 88 91 93 93 91 88 84 81 78 75 74 73 72 72 71 72 74 77 79 81 84 85 86 85 84 82 80 78 75 74 73 73 71 69 68 66
67 71 75 78 81 85 89 91 93 92 88 84 79 75 72 70 68 66 65 65 64 64 65 66 68 71 75 78 82 85 87 87 86 85 83 80 77 76 75 74 73 71 69
71 74 78 81 85 88 90 91 90 85 81 77 74 72 70 67 65 64 62 61 60 60 61 62 64 66 69 73 78 82 86 89 90 89 87 85 81 79 77 77 76 75 73
75 78 81 85 87 89 89 87 82 77 75 73 72 71 68 65 63 61 59 57 57 58 59 60 62 64 66 69 73 78 83 88 91 92 91 89 86 83 80 79 78 78 76
78 80 84 86 88 88 86 81 76 73 72 71 70 68 65 62 59 57 55 53 53 54 56 58 60 62 64 66 68 72 77 84 89 93 94 93 90 87 84 81 80 79 77
79 82 85 87 87 86 82 77 75 73 72 70 67 63 60 57 53 51 50 49 49 50 51 54 58 60 63 65 66 67 71 76 84 90 94 95 94 91 88 84 82 80 78
80 83 85 86 85 82 78 75 74 72 69 65 60 56 53 50 48 46 45 44 44 45 47 49 53 57 60 63 65 66 67 70 76 83 91 95 96 95 92 88 84 81 79
80 83 85 85 82 78 76 75 74 71 66 61 56 52 49 48 46 45 43 42 42 42 42 44 48 52 57 61 64 66 66 66 69 74 84 92 96 97 96 93 88 85 82
81 83 83 81 78 76 76 75 73 69 63 57 52 49 47 47 47 45 44 42 41 41 41 41 43 47 52 57 62 66 67 66 66 68 74 86 93 97 98 96 93 89 86
81 82 81 78 76 75 75 73 71 65 59 54 50 48 48 47 48 47 46 45 44 42 41 41 41 43 47 53 58 64 67 68 67 65 66 74 87 94 98 99 96 93 90

GEFSSE_500_meanwind_042.txt.gz
Wind_Speed
10 11 12 13 14 15 16 18 19 20 21 22 23 25 26 28 31 34 36 38 39 40 40 40 40 39 39 38 37 36 35 34 33 31 29 27 25 23 22 22 22 23 25
9 10 12 13 14 15 16 17 18 20 21 22 23 24 25 26 27 29 31 34 37 40 42 44 44 44 44 43 42 41 39 38 37 36 34 31 29 27 26 24 24 24 24
11 13 14 15 16 17 18 20 21 22 24 25 26 27 28 29 30 30 31 33 34 36 39 42 45 47 48 48 47 46 44 43 41 40 39 36 34 31 29 28 26 26 25
14 15 16 18 20 21 23 25 27 28 30 31 33 34 35 36 36 36 37 37 37 38 38 40 42 45 48 50 51 51 50 48 46 44 43 41 39 36 34 32 30 29 28
16 18 20 22 25 27 29 31 33 35 37 38 40 41 42 43 44 44 44 45 44 44 44 43 43 44 45 48 51 53 54 54 52 50 47 45 44 41 39 36 35 33 31
20 22 25 28 30 32 34 36 38 40 42 44 46 47 48 50 51 51 52 52 52 51 51 51 50 49 48 48 49 51 54 56 57 55 53 50 48 46 44 41 39 37 35
25 27 30 33 35 37 40 42 44 46 48 50 51 53 54 56 57 57 58 59 59 58 58 57 57 56 55 53 52 52 53 55 58 59 58 56 53 51 49 46 44 42 40
30 33 35 38 40 42 45 47 49 51 53 55 57 59 60 62 63 64 65 65 65 65 64 64 63 62 61 60 59 57 56 55 56 59 60 60 59 56 53 51 49 47 45
35 37 40 42 44 47 49 52 54 56 59 61 63 64 66 68 70 71 72 72 72 72 72 71 70 69 67 66 65 64 62 60 58 58 60 62 62 61 59 56 54 52 50
38 41 43 46 48 51 54 57 59 62 64 66 68 70 72 73 75 76 77 78 79 79 79 78 77 76 74 72 71 70 68 66 64 62 61 62 64 64 63 61 59 56 55
41 44 46 49 52 55 58 61 63 66 68 70 72 74 75 77 78 80 81 83 84 85 85 85 84 83 81 79 77 75 73 72 70 68 66 65 65 66 66 65 63 61 59
44 48 50 53 56 59 62 64 67 70 72 74 76 77 79 81 83 85 86 88 89 90 91 92 92 92 90 87 84 82 79 77 75 74 72 70 68 67 67 67 66 65 63
47 51 54 57 60 62 65 67 70 73 75 77 79 82 84 86 88 90 92 93 94 95 96 97 98 98 98 97 94 91 87 83 81 79 77 75 73 71 69 69 69 68 66
50 54 57 60 62 65 68 71 74 76 78 81 84 87 89 92 94 95 96 95 95 94 95 96 97 99 101 102 101 99 96 92 87 84 81 80 78 76 73 71 71 70 69
52 56 59 62 65 68 71 74 77 80 83 87 90 93 95 96 96 95 94 91 90 88 88 88 89 91 95 98 101 102 100 99 95 91 87 85 83 81 79 76 74 72 71
55 58 61 64 68 71 75 78 81 85 89 92 95 96 96 95 93 90 88 85 84 82 81 80 81 82 84 88 92 96 98 98 98 96 93 90 88 87 84 81 78 75 74
57 60 64 68 72 75 79 82 86 90 93 95 95 94 92 89 87 85 83 81 79 77 75 74 74 75 76 79 82 86 90 93 94 96 96 95 94 92 90 86 82 79 77
59 63 67 71 75 78 82 86 90 93 94 94 92 89 86 84 83 81 78 75 71 69 67 66 65 66 68 71 74 78 82 85 89 92 95 96 97 97 94 92 88 84 80
61 66 70 74 77 81 85 89 92 93 92 90 87 85 83 81 78 74 70 65 61 58 56 55 54 56 58 63 67 71 75 79 83 87 92 96 100 101 99 96 93 88 84
64 68 72 76 79 83 87 90 91 90 88 85 84 82 80 77 72 67 62 58 55 52 50 49 48 48 50 53 58 63 68 74 78 82 88 95 101 103 103 100 97 93 88
67 71 74 78 81 84 87 89 89 87 84 83 81 80 76 71 67 62 58 55 53 51 50 49 47 47 47 48 51 55 60 68 74 78 83 92 100 104 105 104 101 97 93
69 72 76 79 82 86 89 89 87 84 82 80 78 75 71 67 64 61 58 57 56 55 54 53 51 48 46 47 47 49 53 60 68 74 79 87 95 102 106 106 105 101 97
70 73 76 79 83 87 88 87 84 81 79 77 75 71 67 65 63 62 62 61 61 61 60 59 56 53 49 47 47 46 48 53 60 69 75 81 88 96 103 106 106 104 100
71 74 77 80 84 87 86 84 82 79 78 76 73 69 66 64 64 65 67 68 68 67 65 63 60 57 53 49 47 46 45 48 55 61 70 76 82 89 96 103 105 105 102
71 74 78 81 84 85 84 82 79 78 77 75 71 68 66 66 68 70 72 72 70 67 65 63 60 57 54 51 48 46 45 45 48 56 63 71 76 82 89 96 102 105 103
71 75 78 81 83 83 82 79 78 76 75 73 70 68 67 69 71 74 72 68 64 61 59 57 56 54 52 49 48 46 44 44 45 50 57 65 71 76 82 89 97 102 104

GEFSSE_500_meanwind_048.txt.gz
Wind_Speed
5 6 7 8 9 10 12 13 15 16 18 19 21 23 24 26 27 28 30 31 33 35 37 39 41 42 43 43 43 43 42 40 38 36 33 31 28 26 25 24 25 26 27
5 6 8 10 11 13 15 17 18 20 22 23 25 26 28 29 30 31 33 34 35 35 36 38 39 42 44 46 47 47 47 46 44 42 39 37 34 32 29 27 27 27 28
8 10 12 14 16 18 20 22 24 26 28 29 31 32 33 34 36 37 38 39 39 40 41 41 41 42 43 44 47 49 50 50 50 48 46 43 40 37 35 32 30 29 30
12 14 17 19 21 24 26 28 30 31 33 34 36 37 39 40 41 42 43 44 45 46 46 47 47 47 46 46 47 48 50 52 53 53 53 50 47 44 41 38 35 33 32
17 19 22 24 26 28 30 32 34 36 37 39 40 42 43 45 46 47 48 49 50 51 51 52 52 53 53 52 51 51 50 51 53 56 56 56 54 51 47 44 41 38 36
21 24 26 28 30 32 34 36 37 39 41 43 44 46 48 49 51 52 53 54 55 55 56 57 57 57 58 58 57 57 55 54 54 55 57 59 59 57 54 51 47 44 41
26 28 30 32 34 35 37 38 40 42 45 47 49 51 53 54 56 57 58 59 60 61 62 62 62 63 62 62 62 62 62 60 59 58 58 59 61 61 60 58 54 50 46
29 31 33 34 36 37 39 41 44 46 49 51 53 55 58 60 62 63 65 66 67 68 68 69 69 68 68 68 67 67 67 66 65 64 63 62 61 62 64 63 60 56 52
32 33 35 36 38 40 42 45 48 50 53 55 58 60 62 65 67 69 71 72 74 75 76 76 76 76 75 74 73 73 72 71 70 69 69 68 66 64 64 66 65 63 59
33 35 37 39 41 44 47 50 52 55 58 60 63 65 68 70 72 75 77 79 80 81 82 82 82 82 82 81 80 79 78 77 76 75 74 73 72 69 67 67 67 67 65
34 37 39 42 44 47 51 54 57 59 62 65 67 70 73 76 78 81 83 85 86 88 89 89 89 89 88 88 87 85 84 83 81 80 79 78 77 75 73 70 69 69 69
37 39 42 45 48 51 54 57 60 63 66 69 72 75 78 81 84 87 89 91 92 94 95 96 97 96 96 95 94 92 91 89 87 85 84 83 82 80 79 76 73 71 71
39 42 45 48 51 54 57 60 62 65 69 72 76 79 82 85 88 91 94 96 98 99 100 100 100 101 101 101 100 99 98 96 94 92 90 88 87 85 84 82 79 76 73
42 45 48 51 54 57 59 62 65 68 72 76 80 83 87 90 93 96 99 101 101 101 100 100 99 98 99 99 100 101 101 102 101 99 97 94 92 90 89 87 85 82 78
44 47 50 53 56 59 61 65 68 72 76 80 84 88 91 95 98 100 101 100 99 97 95 93 92 91 90 91 92 94 97 100 102 103 103 101 98 96 94 92 90 88 84
46 49 52 54 57 60 64 67 71 75 79 83 87 91 95 97 99 98 97 94 90 88 86 85 84 83 83 83 84 86 88 92 96 100 104 104 104 102 100 97 95 93 90
48 50 53 55 59 62 66 70 74 78 82 86 90 94 96 96 95 93 89 86 83 82 81 79 78 77 77 76 76 77 80 83 87 93 99 103 105 106 105 103 101 98 95
48 51 54 57 61 65 69 72 76 80 84 88 92 94 94 92 89 86 83 81 80 79 77 75 74 72 70 69 69 69 71 74 79 84 91 98 103 106 108 108 106 103 100
49 52 55 59 63 67 71 75 78 82 86 90 92 92 90 87 83 81 80 79 78 76 75 74 73 71 69 67 65 64 65 66 70 75 82 90 98 104 108 110 110 108 105
50 53 57 61 65 69 73 76 80 84 88 90 91 89 86 82 80 79 78 77 76 76 76 76 75 73 72 70 67 65 63 62 64 67 73 82 91 99 105 109 111 111 109
51 55 59 63 67 70 74 77 81 85 88 89 88 85 82 79 78 77 76 75 76 76 76 74 72 70 69 70 68 66 63 62 62 63 66 73 83 93 100 105 110 113 113
53 57 61 65 68 71 74 78 82 85 87 87 84 81 79 77 76 75 74 75 76 75 72 69 66 64 62 62 64 65 64 62 64 62 62 67 75 85 94 100 107 112 115
55 59 63 66 69 72 75 79 82 85 86 84 81 78 76 75 75 74 74 75 74 73 69 65 61 57 54 52 55 59 62 63 62 61 62 63 67 75 86 95 102 110 115
56 60 64 67 70 72 76 79 82 84 83 81 78 76 74 74 73 73 73 74 72 70 66 62 56 51 45 42 44 49 55 60 61 60 60 60 61 66 75 87 97 105 113
57 61 65 68 70 73 76 79 81 82 81 79 76 74 73 72 72 72 72 72 70 67 62 58 52 45 37 31 31 38 45 53 57 57 58 58 58 60 67 77 89 98 108
58 62 66 68 70 73 76 79 81 81 79 76 73 72 71 71 71 71 71 69 67 63 58 53 47 40 32 24 20 25 34 43 50 54 55 55 55 56 60 67 79 91 102

GEFSSE_500_meanwind_054.txt.gz
Wind_Speed
8 8 9 10 11 12 14 15 17 19 20 22 24 25 27 28 29 30 31 33 33 34 34 35 35 36 36 37 37 38 39 40 40 40 40 38 36 34 31 28 27 26 27
9 10 11 12 14 16 18 19 21 23 25 26 28 29 30 32 33 34 35 37 38 38 39 40 40 40 40 40 40 40 40 40 41 42 43 43 41 40 37 34 32 30 30
10 12 14 16 18 20 22 24 25 27 29 30 31 33 34 35 36 38 39 40 42 42 43 44 45 45 45 45 44 44 44 43 43 44 45 45 45 45 43 41 38 35 34
14 16 18 20 22 24 25 27 29 30 32 33 34 36 37 39 40 42 43 44 45 47 48 48 49 50 50 50 49 49 49 48 47 47 48 47 48 48 47 46 44 41 39
18 20 22 23 25 27 28 30 31 33 34 35 37 39 40 42 43 45 46 48 49 50 51 52 53 54 54 54 54 54 54 53 52 52 52 51 50 51 51 50 49 47 44
21 23 24 26 27 28 30 31 33 34 36 38 39 41 43 45 46 48 50 51 53 54 55 56 57 58 59 59 59 59 59 58 57 57 57 56 55 54 54 53 53 51 50
24 25 26 27 28 30 31 33 35 36 38 40 42 44 46 48 50 52 54 55 57 59 60 61 63 64 64 65 65 65 64 64 63 62 62 62 61 60 59 57 56 55 54
25 26 27 28 30 32 34 35 37 39 41 42 45 47 49 51 54 56 59 61 63 65 67 69 70 71 72 72 72 72 71 70 69 68 68 67 66 66 64 62 60 58 57
26 27 28 30 32 34 36 38 40 42 43 46 48 50 53 56 59 62 65 68 70 73 75 77 78 80 80 81 81 80 79 78 76 75 73 72 72 71 70 68 66 63 61
27 28 30 32 34 36 38 40 42 44 46 48 51 54 57 61 64 67 71 74 77 80 82 85 87 88 89 89 89 89 88 86 84 82 80 78 78 77 76 74 72 70 67
28 30 32 34 36 38 40 42 44 46 49 52 55 58 61 65 69 72 76 79 83 86 89 92 94 96 98 98 99 99 98 96 94 91 88 86 84 82 81 79 78 76 73
29 32 34 36 38 40 42 44 46 49 52 55 58 62 65 69 73 76 80 84 87 91 95 98 102 104 106 107 108 108 108 106 104 101 97 94 91 89 87 85 83 81 79
31 33 36 38 40 42 44 46 49 52 55 58 62 65 69 72 76 80 84 88 92 96 101 105 108 110 111 112 112 112 112 112 111 109 106 103 99 97 94 91 89 87 85
33 35 38 40 42 44 47 49 52 55 58 61 65 68 71 75 79 83 88 92 97 102 105 108 109 109 108 107 106 106 106 107 109 110 110 109 107 104 101 98 95 93 91
35 37 39 42 44 46 49 51 54 57 61 64 68 71 74 78 82 87 91 96 101 103 105 104 102 98 95 92 90 89 90 93 96 100 105 108 109 108 107 105 102 99 96
37 39 42 44 46 48 51 53 56 59 63 66 70 73 76 80 85 90 95 99 101 101 98 93 88 84 81 80 80 80 81 82 85 88 93 99 104 107 109 108 107 105 102
39 41 43 46 48 50 52 55 58 62 65 68 71 75 79 83 88 93 97 99 97 92 88 83 80 79 78 78 78 79 80 81 82 84 86 90 95 101 106 109 110 110 108
41 43 45 47 49 52 54 57 60 63 67 70 73 77 81 86 91 95 97 94 90 85 81 79 78 77 77 78 78 78 78 80 82 84 85 87 89 94 99 105 109 112 112
42 44 46 48 51 53 55 58 62 65 68 71 74 78 83 88 92 94 93 88 84 79 77 77 76 77 76 75 74 72 72 73 75 77 81 85 87 89 94 99 106 111 115
43 45 47 49 52 54 56 60 63 66 69 72 76 80 85 89 92 91 87 84 79 76 76 75 75 74 73 73 70 68 66 66 67 69 72 78 82 86 90 95 102 108 114
43 46 48 50 52 55 57 60 64 67 70 73 77 82 86 89 91 88 84 79 76 74 74 73 74 71 70 70 67 62 58 56 56 59 63 68 74 82 87 92 98 105 111
44 46 48 50 53 55 58 61 64 68 71 74 78 83 86 89 88 84 80 76 74 73 72 72 71 70 67 65 64 61 54 44 43 46 52 59 68 76 83 88 94 100 107
45 47 49 51 53 56 59 62 65 68 71 75 79 83 86 87 84 81 77 74 73 72 71 70 69 68 65 60 58 57 52 42 33 32 40 49 60 69 76 83 88 94 102
47 49 51 53 55 57 60 63 66 69 72 75 79 83 85 84 82 78 75 72 72 71 69 68 67 66 63 58 53 48 45 40 32 23 28 39 52 63 70 76 81 87 95
49 52 54 55 57 59 61 64 67 70 72 76 80 82 83 81 79 76 73 71 70 69 68 67 65 63 60 56 50 44 38 34 29 22 20 30 43 55 64 69 74 79 86
52 55 57 59 60 61 63 66 68 70 73 76 79 81 81 79 76 73 71 70 69 68 66 65 64 61 57 52 46 40 36 31 26 20 16 22 34 47 56 62 67 72 78

GEFSSE_500_meanwind_060.txt.gz
Wind_Speed
5 5 6 8 9 11 12 14 16 18 19 20 22 23 24 25 26 27 28 28 29 30 30 31 32 32 32 32 33 33 33 33 33 35 36 36 36 36 36 35 34 33 31
6 8 9 11 13 14 16 18 19 20 22 23 24 25 26 27 28 29 30 31 32 32 33 34 35 36 36 37 37 38 38 38 37 38 39 39 40 40 39 39 39 38 36
9 11 13 14 16 17 18 20 21 22 23 25 26 27 27 28 29 31 32 33 34 35 36 37 38 39 40 41 41 42 42 42 43 42 43 43 43 44 43 43 43 42 42
13 14 15 17 18 19 20 21 22 23 24 26 27 28 30 31 32 33 34 35 36 37 39 40 41 42 43 44 45 46 46 46 47 47 48 48 48 48 48 47 47 47 46
15 16 18 19 20 20 21 22 23 25 26 27 29 30 31 32 33 35 36 37 38 39 41 42 43 44 46 47 48 49 50 51 51 52 52 53 53 53 53 52 51 51 50
17 18 19 20 20 21 22 23 25 27 28 29 31 32 33 34 35 37 38 39 41 42 43 45 46 48 49 51 52 54 55 55 56 57 58 58 58 59 59 58 57 56 54
18 19 19 20 21 22 24 26 27 29 30 31 32 33 35 36 37 38 40 42 44 45 47 49 51 53 55 56 58 59 61 62 62 63 63 64 64 65 65 64 63 62 60
19 19 20 22 23 24 26 28 29 31 32 33 34 35 36 38 39 41 43 45 47 50 52 54 56 58 61 63 65 67 68 70 70 71 70 71 71 71 71 70 69 68 66
19 20 21 23 24 26 28 29 31 32 33 34 36 37 39 41 42 44 47 49 52 54 57 59 62 65 68 70 72 75 76 78 78 79 78 78 78 78 77 77 76 74 73
20 22 23 24 26 28 29 30 32 33 35 36 38 40 41 43 45 48 50 53 55 58 61 64 67 71 74 77 80 84 86 88 89 89 89 89 88 86 85 84 83 81 79
21 23 24 26 27 29 30 32 34 35 37 39 41 42 44 46 48 51 53 56 58 61 65 68 72 76 79 84 88 92 95 98 100 101 100 100 98 97 95 93 90 89 87
22 23 25 26 28 30 31 33 35 37 39 41 42 44 46 49 51 53 56 58 61 65 68 72 77 80 85 90 95 99 103 106 108 109 110 110 108 107 105 103 99 96 94
22 24 26 28 30 31 33 35 36 39 41 42 44 47 49 51 54 56 59 61 64 67 71 76 80 84 90 95 100 104 108 111 112 112 112 113 113 113 113 113 110 106 102
23 25 27 29 31 32 34 36 39 41 42 44 46 48 51 53 56 58 61 63 66 70 74 78 83 89 94 99 103 106 107 106 104 102 101 101 103 106 110 115 117 116 112
23 25 27 29 32 33 36 38 40 42 44 46 47 49 52 54 57 59 62 65 68 72 76 81 87 92 97 101 102 101 98 95 92 88 87 86 88 92 97 104 112 118 119
24 26 28 30 32 34 36 38 40 42 44 46 48 50 53 55 57 60 62 65 69 74 79 84 90 94 97 97 95 92 89 86 84 83 83 83 83 84 87 93 100 109 116
24 26 28 29 31 33 35 37 39 41 44 46 48 50 53 55 57 60 63 67 71 76 81 87 91 94 93 91 88 84 82 81 81 81 80 80 81 82 85 88 93 99 107
24 26 28 30 32 34 36 38 40 42 44 46 48 51 53 55 58 61 64 68 73 78 83 88 90 90 88 85 81 79 78 78 78 78 78 77 77 78 81 86 91 95 101
25 27 29 31 33 35 37 39 42 44 46 48 50 52 54 57 59 62 66 70 75 80 85 88 88 87 84 80 77 75 74 74 74 74 74 72 70 70 73 78 85 92 97
26 29 31 32 35 37 39 41 44 46 48 50 52 54 56 58 61 64 68 72 77 82 85 86 85 83 80 77 75 72 70 70 70 70 69 67 64 63 64 70 77 85 94
27 30 33 35 37 39 41 43 45 48 51 53 55 57 59 61 63 66 70 74 78 82 84 84 82 79 77 75 73 70 67 66 65 64 63 61 58 56 56 60 67 76 86
28 31 34 37 39 41 43 45 47 50 53 55 57 60 61 63 65 68 72 76 79 82 82 81 80 77 74 73 72 71 68 61 58 57 56 54 51 49 47 49 56 66 78
29 32 35 38 41 43 45 47 50 52 55 58 60 62 64 66 68 70 74 77 80 81 80 79 77 75 72 70 70 71 70 66 58 50 48 47 45 43 40 39 44 55 68
30 33 36 39 42 45 47 50 52 54 57 60 62 64 66 68 70 72 75 77 79 79 78 76 75 73 71 68 67 67 67 66 62 53 43 41 40 39 36 34 35 44 58
33 35 38 41 44 47 49 51 54 56 59 61 64 66 68 69 71 73 76 77 78 78 76 74 73 71 70 68 66 64 62 60 58 56 45 37 35 35 33 31 30 36 47
36 38 40 42 45 48 51 53 55 58 60 63 65 67 69 71 72 74 76 77 77 76 74 72 70 69 68 67 65 64 62 58 54 51 45 38 34 30 30 27 27 31 41

GEFSSE_500_meanwind_066.txt.gz
Wind_Speed
2 3 4 6 7 8 10 11 12 14 14 15 16 17 18 19 19 20 20 21 21 22 22 22 23 23 23 23 23 23 24 24 25 26 27 27 27 27 27 28 28 29 28
5 6 7 9 10 11 13 14 15 16 17 18 19 19 20 21 22 22 23 23 23 24 24 25 25 26 26 27 27 27 27 27 28 29 30 30 31 31 31 31 32 32 32
8 9 10 12 13 14 15 17 18 18 19 20 20 21 22 22 23 24 24 25 25 26 27 27 28 28 29 29 30 30 30 30 31 32 33 33 34 34 35 35 36 36 36
11 12 13 14 15 16 17 18 19 20 21 21 22 23 23 24 25 25 26 26 27 28 28 29 30 31 31 32 33 33 33 34 35 35 36 37 38 38 38 39 39 40 40
13 14 15 16 17 18 19 19 20 21 22 23 24 24 25 25 26 26 27 28 28 29 30 31 32 33 34 35 35 36 37 37 38 39 40 41 42 42 43 43 43 44 45
14 15 16 17 18 19 20 21 22 23 23 24 25 26 26 27 27 28 29 30 31 32 33 34 35 36 37 38 39 40 40 41 42 43 44 45 46 47 48 48 49 49 49
15 16 17 18 19 20 21 22 23 24 24 25 26 27 27 28 29 30 31 32 33 34 35 36 37 39 40 41 42 43 44 44 45 46 48 49 50 51 53 54 54 55 55
16 17 18 19 20 21 22 23 24 24 25 26 27 28 29 30 31 32 33 34 35 36 37 38 39 41 42 44 45 46 47 49 50 51 52 53 55 56 57 58 60 60 61
17 18 19 20 21 21 22 23 24 25 26 27 28 29 30 31 32 33 34 35 36 38 39 40 42 43 45 46 48 49 51 53 54 56 57 59 60 62 63 64 65 66 67
17 18 19 20 21 22 23 24 25 25 26 27 28 29 30 31 32 33 35 36 38 39 41 42 44 45 47 49 51 53 54 56 58 60 62 64 66 68 70 72 73 73 74
17 18 19 20 21 22 23 24 24 25 26 27 28 29 30 31 32 34 36 38 39 41 42 44 46 47 49 51 53 55 57 59 62 64 66 69 71 74 77 79 80 81 82
17 18 19 20 21 22 22 23 24 25 26 27 28 29 31 32 34 35 37 39 40 42 44 45 47 49 51 53 55 58 60 62 64 67 71 74 76 80 83 86 88 90 92
17 18 18 19 20 21 22 23 25 26 27 28 30 31 32 34 35 37 38 40 42 43 45 47 49 50 53 55 57 60 62 65 67 71 74 78 81 85 88 91 95 98 101
17 17 18 19 20 22 23 24 26 27 29 30 31 33 34 35 37 38 40 42 43 45 47 48 50 52 55 57 59 62 65 67 71 75 78 82 86 89 93 97 101 105 108
16 17 18 20 21 23 24 26 27 29 30 32 33 34 36 37 38 40 41 43 45 47 48 50 52 54 57 59 62 64 67 70 74 78 82 86 90 94 98 101 102 104 105
17 18 19 21 22 24 25 27 29 30 32 33 35 36 38 39 41 42 43 45 47 48 50 52 54 56 59 61 64 67 70 74 78 82 86 90 94 97 99 98 96 95 95
18 19 20 21 23 24 26 28 30 32 33 35 36 38 39 41 42 44 45 46 48 50 52 54 56 58 61 63 66 69 73 76 81 85 89 92 94 95 95 93 90 89 89
19 20 21 22 23 25 26 28 30 33 35 36 38 39 41 42 44 45 47 48 50 52 54 56 58 61 63 65 68 71 75 79 84 87 89 91 92 92 90 89 87 86 85
20 22 23 24 25 26 27 29 31 34 36 38 39 41 42 43 45 47 48 50 52 54 56 58 60 63 65 67 70 73 77 81 85 87 88 89 90 89 87 86 84 81 79
22 24 25 26 27 28 30 31 33 36 38 40 41 43 44 45 47 48 50 51 53 56 59 61 63 65 67 69 72 75 79 82 85 85 87 87 86 85 84 82 79 76 73
25 26 27 28 29 31 32 34 36 38 40 42 44 45 47 48 49 50 51 53 55 58 61 63 65 67 70 72 74 76 78 81 82 82 83 82 81 81 80 77 74 71 68
28 29 30 31 32 34 35 37 38 40 42 44 46 47 49 50 51 52 54 56 58 60 63 65 67 70 72 75 77 79 80 79 80 79 78 78 77 77 75 73 70 66 63
30 32 33 34 35 37 38 39 41 43 45 47 48 50 51 52 53 54 56 58 60 62 65 67 70 72 74 77 80 82 83 82 81 76 73 72 72 72 71 69 65 61 58
33 34 36 37 38 40 41 42 44 46 47 49 51 52 53 54 56 57 58 60 62 65 67 69 72 74 76 78 80 82 83 84 84 79 71 68 68 67 67 65 62 58 54
36 37 39 40 41 43 44 46 47 49 50 52 53 55 55 56 58 59 60 62 64 67 69 71 73 75 77 78 80 81 81 81 82 80 74 67 63 63 63 61 59 55 51
39 41 42 44 45 46 48 49 50 52 53 54 55 57 57 58 59 61 62 64 66 68 70 72 74 76 78 79 80 80 80 79 78 77 74 69 63 58 58 57 56 53 49

GEFSSE_500_meanwind_072.txt.gz
Wind_Speed
2 2 3 3 4 5 6 7 7 8 9 10 12 13 14 14 15 16 16 17 17 17 17 17 18 18 18 19 20 21 22 22 22 22 22 22 22 23 23 23 23 23 23
3 4 5 5 6 7 8 9 9 10 12 13 14 15 16 16 17 18 18 18 18 19 19 19 19 19 20 20 21 22 22 23 23 23 24 24 25 25 26 26 26 26 26
5 6 7 7 8 9 10 10 11 12 13 14 15 16 17 17 18 19 19 19 20 20 20 20 21 21 21 22 22 23 24 24 25 25 26 26 27 27 28 28 29 29 29
8 8 9 9 10 11 12 13 13 14 15 15 16 17 18 18 19 20 20 21 21 21 22 22 23 23 24 24 25 26 26 27 28 28 29 29 29 30 30 31 31 32 32
10 10 11 11 12 13 14 14 15 15 16 16 17 18 19 19 20 20 21 22 22 23 24 24 25 25 26 26 27 28 29 30 30 31 32 32 33 33 33 34 34 35 35
12 12 12 13 13 14 15 15 16 16 16 17 18 18 19 19 20 21 22 22 23 24 24 25 26 27 27 28 29 30 31 32 33 34 35 35 36 37 37 38 38 39 39
13 13 13 14 14 15 15 15 15 16 17 17 18 19 19 20 20 21 22 22 23 24 24 25 26 27 28 29 30 31 32 33 34 36 37 38 39 40 41 41 42 43 43
13 13 14 14 14 14 14 15 15 16 17 17 18 18 19 19 20 21 21 22 22 23 24 25 26 27 28 29 30 31 32 33 35 36 38 39 41 42 43 44 45 46 47
13 13 13 13 13 13 14 15 15 16 17 17 18 18 19 19 20 20 21 22 23 24 25 26 27 27 28 29 30 31 32 34 35 37 38 40 42 44 45 46 48 49 50
12 12 12 12 13 13 14 15 15 16 16 17 18 18 19 20 21 22 23 24 25 26 27 27 28 29 29 30 31 32 33 34 35 37 39 41 42 44 46 48 50 51 53
12 12 12 12 12 13 13 14 15 16 17 18 19 20 21 22 23 24 25 26 27 28 29 30 30 31 32 33 33 34 35 36 37 38 40 41 43 45 47 49 51 53 55
11 11 12 12 12 13 13 14 15 17 18 19 21 22 23 24 25 27 28 29 30 31 32 33 34 35 35 36 37 37 38 39 39 40 42 43 44 46 48 50 52 54 56
11 11 12 12 12 13 14 15 17 18 19 20 21 23 24 25 26 28 29 31 32 33 34 35 36 37 38 39 40 41 41 42 42 43 44 45 47 48 50 51 53 55 57
11 12 12 13 14 14 15 17 17 18 19 20 22 23 25 26 28 29 31 32 34 35 36 37 38 39 40 41 42 43 44 45 46 46 47 48 49 50 52 53 55 57 59
12 13 13 14 15 16 17 18 19 20 21 22 24 25 27 28 29 31 33 34 36 37 38 39 40 41 42 44 45 46 47 48 49 49 50 51 53 54 55 56 58 60 62
13 14 14 15 17 18 19 20 21 22 24 25 26 28 29 31 32 34 35 37 38 40 41 42 42 43 44 45 47 48 49 50 52 52 53 54 56 57 58 59 61 63 65
15 15 16 17 19 20 21 23 24 25 26 28 29 30 32 33 35 36 38 39 41 42 44 45 45 46 47 48 49 50 52 53 54 55 56 58 59 60 61 62 64 65 67
18 18 19 20 21 22 24 25 27 28 30 31 32 33 35 36 38 39 41 43 44 45 47 48 49 49 49 50 51 52 54 55 56 58 59 61 62 63 64 65 67 68 70
21 22 22 23 24 25 27 28 30 31 33 34 36 37 38 39 41 42 44 46 47 48 50 51 52 52 52 52 53 54 55 56 58 60 62 63 65 66 67 69 70 71 73
24 25 26 26 28 29 30 31 33 34 36 37 39 40 41 42 44 45 47 49 50 51 52 54 54 54 54 55 55 55 57 58 60 62 63 65 67 68 69 71 73 74 75
27 28 29 30 31 32 33 34 35 37 39 41 42 43 45 46 47 49 50 52 53 53 55 56 56 56 57 57 57 57 57 58 60 62 64 66 68 70 72 73 75 76 77
30 31 32 32 34 35 36 38 38 40 42 44 46 47 48 49 51 52 53 54 55 56 57 58 58 59 60 59 59 59 59 59 60 62 65 67 69 71 73 75 76 78 79
32 34 34 35 37 38 40 41 42 44 45 47 49 50 52 53 54 54 55 56 57 58 60 60 60 60 61 60 60 61 61 62 63 63 66 69 71 73 74 76 78 79 80
35 36 37 38 40 41 43 44 46 47 48 50 52 53 55 56 57 57 57 58 59 61 62 62 62 62 62 61 61 61 63 64 65 66 67 70 71 73 75 77 79 80 81
37 38 40 41 43 44 46 47 49 50 52 54 55 56 57 58 58 59 59 60 62 62 63 63 63 63 62 62 62 62 64 66 68 68 68 70 72 74 76 77 79 80 80
40 41 42 44 45 47 48 50 51 53 54 56 56 57 58 59 59 60 61 63 63 63 64 64 64 63 63 62 63 64 66 68 69 70 69 69 71 72 75 76 78 79 79

GEFSSE_500_meanwind_078.txt.gz
Wind_Speed
3 4 5 5 6 7 7 8 9 9 10 11 12 12 13 13 14 14 14 14 14 15 15 16 16 17 17 17 18 18 18 18 18 19 19 19 19 19 20 20 20 20 20
3 4 5 6 7 8 9 9 10 11 12 13 13 14 14 15 15 15 15 15 15 16 16 17 17 18 18 19 19 19 20 20 20 20 21 21 21 21 22 22 22 22 22
5 6 7 8 9 10 10 11 12 13 14 15 15 15 15 15 16 16 16 16 16 16 16 17 18 18 19 19 20 20 21 21 22 22 22 22 23 23 24 24 24 25 25
7 9 9 10 11 11 12 13 14 15 15 16 16 16 16 16 16 16 16 17 17 17 17 18 18 19 19 20 21 21 22 22 23 24 24 25 25 26 26 27 27 27 28
9 10 11 11 12 13 14 14 15 15 15 15 15 15 15 16 16 16 17 17 17 17 18 18 19 19 20 21 22 23 23 24 24 25 26 27 27 28 29 29 30 30 30
11 12 13 13 13 14 14 15 15 15 15 15 15 15 15 15 15 16 16 16 17 17 18 18 19 19 20 21 22 23 24 25 25 26 27 27 28 29 30 31 32 32 32
13 13 14 13 14 14 15 15 14 14 14 14 14 14 14 15 15 15 15 16 16 17 17 18 19 20 20 21 22 23 24 25 26 26 27 28 29 30 31 32 33 33 34
13 13 14 14 14 14 14 14 13 13 13 13 13 13 14 14 14 15 15 16 17 17 18 19 20 21 22 23 24 24 25 26 26 27 28 29 30 30 31 32 34 35 36
14 14 14 14 14 14 14 13 13 13 13 13 13 13 14 14 15 16 16 17 18 19 20 21 21 22 23 24 25 26 27 27 28 29 30 30 31 32 32 33 34 35 36
15 14 15 15 14 14 14 13 13 13 13 13 13 14 14 15 16 17 18 19 20 20 21 22 23 24 25 26 27 28 29 29 30 31 32 32 33 34 34 35 36 37 37
15 15 14 15 14 14 14 13 13 13 13 13 14 14 15 16 17 18 19 20 21 22 22 23 24 25 26 27 28 30 31 31 32 33 34 35 36 36 37 38 38 39 40
16 16 15 14 15 14 14 14 14 14 14 14 15 15 16 17 18 19 20 21 22 23 24 25 26 27 28 29 30 31 32 33 34 35 37 37 38 39 40 40 41 42 42
16 16 16 15 15 15 15 15 15 16 16 16 17 17 18 19 20 21 22 23 24 25 27 28 29 30 31 31 32 33 34 35 36 37 39 40 41 42 43 43 44 45 45
17 18 17 17 17 17 17 17 18 18 19 19 19 20 21 22 23 24 25 26 27 28 30 31 32 33 34 35 35 36 37 38 38 40 41 42 43 44 45 46 47 47 48
19 19 19 19 19 19 19 20 20 20 21 22 22 23 24 25 26 27 28 30 31 32 33 34 35 36 37 38 39 40 40 41 41 42 43 44 45 46 47 48 49 50 51
21 21 21 22 22 22 22 23 23 23 24 25 26 26 27 29 30 31 32 33 34 35 36 37 38 40 41 42 43 44 44 45 45 45 46 47 48 48 49 50 51 52 52
24 24 24 25 25 25 26 26 26 27 27 28 29 30 31 32 33 34 35 36 37 39 40 41 42 44 45 46 47 47 48 48 49 49 49 49 50 51 52 53 53 54 55
26 26 26 27 27 28 29 29 30 30 30 31 32 34 35 36 37 38 39 40 41 42 44 45 46 47 48 49 50 50 51 51 52 52 53 53 53 53 54 54 55 56 57
28 28 28 29 30 31 32 32 33 33 34 35 36 37 38 40 41 41 42 44 45 46 47 49 50 51 52 52 53 53 54 54 55 55 56 56 56 56 56 56 57 57 58
30 30 31 32 33 34 34 35 35 36 37 38 39 40 41 43 44 45 46 47 49 50 51 52 53 54 55 55 55 55 56 57 58 58 58 58 58 58 58 59 59 59 60
31 32 33 34 35 37 37 37 38 39 40 40 41 42 44 45 47 49 50 51 52 53 54 55 57 57 58 58 58 58 59 59 60 59 59 59 59 60 60 60 60 61 62
32 34 35 36 37 38 39 40 40 41 42 43 44 45 47 49 50 52 53 54 55 56 57 58 59 60 60 61 61 62 62 61 60 59 59 58 59 60 60 61 61 62 62
32 34 35 37 38 39 41 42 42 43 44 45 47 48 50 52 53 54 55 57 58 59 60 60 61 62 63 63 63 63 63 62 61 59 58 58 59 60 60 61 61 62 63
33 34 35 37 39 40 42 43 44 45 46 47 49 51 52 54 55 57 58 59 60 61 62 62 63 64 65 65 64 63 63 63 62 61 59 59 59 60 61 61 62 62 63
33 35 36 38 40 41 43 45 46 47 49 51 52 53 54 56 57 59 60 61 62 63 64 65 65 66 65 65 64 63 62 62 62 62 61 60 60 60 61 62 62 62 63
34 36 38 40 42 44 45 47 48 50 51 53 54 56 57 58 59 60 61 62 63 64 65 66 66 66 65 64 63 63 63 62 62 62 61 61 61 61 62 62 62 63 64

GEFSSE_500_meanwind_084.txt.gz
Wind_Speed
6 6 6 6 6 6 7 7 7 8 9 9 10 11 12 12 13 14 14 14 15 15 15 15 16 15 15 15 15 15 16 16 16 16 17 17 18 18 18 19 19 20 20
5 6 6 6 7 7 7 8 8 9 10 10 11 12 13 14 14 15 15 16 16 16 16 16 16 16 16 16 16 16 17 17 17 18 18 19 19 20 20 21 21 22 22
5 6 7 7 7 8 8 9 9 10 11 12 13 14 14 15 15 15 15 16 16 16 16 16 16 16 16 16 17 17 17 18 19 19 20 20 21 21 22 22 23 23 24
6 7 8 8 9 9 9 10 11 12 13 13 14 14 14 14 14 14 15 15 16 16 16 16 16 16 16 17 17 17 18 19 19 20 21 21 22 23 23 24 25 25 26
8 9 9 10 10 10 11 11 12 13 13 13 13 13 13 13 14 14 14 15 15 15 16 16 16 16 16 16 17 18 18 19 20 21 22 23 24 24 25 26 27 27 28
10 10 10 11 11 11 11 12 12 13 13 13 13 13 13 13 13 14 14 14 14 15 15 15 15 15 16 16 17 18 18 19 20 21 22 23 24 25 26 27 28 29 30
12 11 11 11 11 11 12 12 12 12 12 13 13 13 13 13 13 13 13 13 14 14 14 15 15 16 16 17 17 18 19 20 21 22 23 23 24 25 26 27 28 29 30
13 12 12 12 12 12 12 12 12 12 12 12 13 13 13 13 13 13 13 13 14 14 15 15 16 16 17 18 18 19 20 21 22 22 23 24 25 26 27 28 29 30 31
13 13 13 12 13 13 13 12 12 12 12 12 13 13 13 13 13 14 14 14 14 15 15 16 16 17 18 18 19 20 21 22 23 23 24 25 26 27 29 30 30 31 32
14 14 13 13 13 13 13 13 13 13 13 13 13 14 14 14 14 14 14 14 15 15 16 16 17 18 19 19 20 21 22 23 24 25 26 27 28 29 30 31 32 33 34
14 14 14 14 14 14 14 14 14 14 14 14 14 15 15 15 15 15 15 15 16 16 17 18 18 19 20 21 22 23 24 25 25 26 27 28 29 31 32 33 35 36 36
15 15 15 15 15 15 15 15 15 15 16 16 16 16 16 16 16 17 17 17 18 18 19 20 21 21 22 23 24 25 26 27 28 29 29 30 31 32 33 34 36 37 38
16 17 17 17 17 17 17 17 17 17 18 18 18 18 18 19 19 19 20 20 21 22 22 23 24 25 26 27 27 28 29 30 31 32 33 34 34 35 36 37 38 39 40
17 19 19 18 18 19 19 19 20 20 20 20 20 21 21 22 22 23 23 24 25 26 26 27 28 29 29 30 31 32 33 34 35 36 37 38 38 39 40 40 41 41 42
19 20 21 21 21 21 22 22 22 23 23 23 24 24 25 25 26 27 27 28 29 29 30 31 32 32 33 34 35 36 37 38 39 40 40 41 42 43 44 44 45 45 45
22 22 22 23 24 24 24 25 25 26 26 27 27 28 28 29 30 31 31 32 33 33 34 35 35 36 37 38 39 40 41 42 42 43 44 45 46 47 47 48 49 49 49
23 24 24 25 25 26 27 28 28 29 29 30 31 31 32 33 33 34 35 36 37 37 38 39 39 40 41 42 43 44 45 45 46 47 47 48 49 50 51 51 52 53 53
24 25 26 26 27 28 29 30 31 32 32 33 34 35 36 37 37 38 38 39 40 41 42 43 44 44 45 46 47 48 48 49 50 50 51 52 52 53 54 55 55 56 57
24 25 26 27 28 29 30 32 33 34 35 36 37 38 39 40 41 42 42 43 44 45 46 47 47 48 49 50 51 51 52 52 53 53 54 54 55 56 57 57 58 59 59
24 24 26 28 29 30 31 32 34 35 36 38 39 40 41 43 44 45 45 46 48 48 49 50 51 52 53 54 55 54 55 56 56 56 57 57 57 58 58 59 59 60 61
24 25 26 27 29 31 32 33 34 35 37 38 40 41 43 45 46 48 48 49 51 52 53 54 55 55 56 58 58 58 58 58 58 58 59 59 59 59 60 60 60 61 61
24 25 26 27 29 31 33 34 35 36 37 39 40 42 45 47 48 50 51 52 53 54 55 56 58 59 59 61 62 62 61 60 59 60 60 60 60 61 61 61 61 61 62
24 25 27 28 30 32 34 35 36 37 38 40 42 45 47 48 50 51 53 54 56 57 58 59 60 61 62 63 64 65 65 63 62 60 60 60 61 61 61 61 61 61 62
26 27 29 30 31 33 35 36 38 39 40 42 45 46 48 50 51 53 55 56 58 59 60 61 63 63 65 65 66 66 67 67 66 63 61 60 61 61 61 61 61 61 62
28 29 30 31 33 34 36 38 40 41 43 45 47 48 50 52 54 55 56 58 59 60 61 63 64 66 67 67 67 67 67 67 67 66 63 61 61 60 60 60 60 61 62
30 31 31 33 34 35 37 39 41 42 44 46 47 49 51 53 55 56 58 60 61 62 63 65 66 67 67 67 67 68 68 67 67 66 65 62 61 60 60 60 60 61 61

GEFSSE_500_meanwind_090.txt.gz
Wind_Speed
10 10 11 11 11 10 10 10 10 10 10 10 10 10 10 10 10 11 11 11 12 12 13 14 14 15 15 16 16 17 17 17 18 18 18 18 19 19 19 19 20 20 21
9 9 10 10 10 10 10 10 10 11 11 11 11 11 12 12 12 12 13 13 13 13 14 14 15 15 16 16 17 17 18 18 19 19 20 20 20 20 21 21 21 22 22
8 8 9 9 10 10 11 11 11 12 12 12 12 13 13 13 13 13 13 13 13 13 13 14 14 14 15 15 16 17 17 18 19 19 20 20 21 21 22 23 23 23 24
8 9 9 10 11 11 11 12 12 13 13 13 13 13 13 13 13 13 13 13 13 13 13 13 14 14 15 15 16 16 17 18 18 19 20 21 21 22 23 24 24 25 25
10 10 11 11 12 12 12 13 13 14 14 14 14 14 13 13 13 13 12 12 12 12 12 13 13 14 14 14 15 16 16 17 18 19 20 21 21 22 23 24 25 26 26
11 12 12 13 13 14 14 14 14 14 15 14 14 13 13 13 13 13 12 12 12 13 13 13 13 13 14 14 14 15 16 16 17 18 19 20 21 22 23 24 25 26 27
13 13 14 14 14 15 15 15 15 15 15 14 14 14 13 13 13 13 13 13 13 13 13 13 13 13 14 14 15 15 16 17 18 18 19 20 21 22 23 24 25 26 27
14 14 15 15 15 16 16 16 16 15 15 15 14 14 14 14 13 14 13 13 13 14 14 14 14 15 15 15 16 16 17 18 19 19 20 21 22 23 24 25 26 27 28
15 15 15 16 16 16 16 17 17 16 16 15 15 15 15 14 14 14 14 14 15 15 15 15 16 16 16 17 17 17 18 19 19 20 21 22 22 23 24 25 26 27 28
16 16 16 17 17 18 18 18 18 17 17 17 16 16 16 16 16 16 16 16 16 16 16 17 17 17 17 18 18 19 19 20 20 21 22 23 23 24 25 26 27 28 29
17 17 17 18 18 18 19 19 18 18 18 18 18 18 18 18 18 18 18 18 18 18 18 19 19 19 20 20 21 21 21 22 22 23 24 24 25 26 26 27 28 29 30
17 18 18 19 19 19 20 20 20 20 20 20 20 20 20 20 20 20 21 21 21 21 21 21 22 22 23 23 23 24 24 25 25 26 27 27 28 28 29 30 31 31 32
19 20 20 20 21 21 21 22 22 22 22 23 23 22 23 23 23 23 23 24 24 24 25 25 25 26 26 27 27 28 28 29 29 29 30 31 31 32 33 33 34 34 35
20 22 22 22 22 23 23 24 24 25 25 25 25 25 26 26 26 27 27 27 27 28 28 29 29 30 30 31 31 32 32 33 33 34 34 35 35 36 36 37 38 38 38
22 23 23 23 24 25 25 26 27 27 28 28 28 29 29 29 30 30 30 31 31 32 32 33 33 34 34 35 35 36 36 37 37 38 38 38 39 39 40 40 41 42 42
22 23 24 25 25 26 27 28 29 30 30 30 31 31 32 32 33 33 34 34 35 36 36 37 37 38 38 39 39 40 40 41 41 41 42 42 43 43 44 44 44 45 45
23 24 25 25 26 27 28 29 30 31 31 32 33 33 34 35 36 37 37 38 39 40 40 40 41 41 42 43 43 44 45 45 45 45 46 46 46 47 47 47 48 48 48
23 23 25 25 26 27 28 29 30 31 32 33 34 35 36 37 38 39 40 41 42 43 43 44 44 45 45 46 47 48 48 48 48 49 49 49 50 50 51 51 51 51 52
23 23 24 25 26 28 29 29 30 31 33 34 35 36 38 39 40 41 41 43 45 45 46 46 47 48 49 50 51 51 52 52 52 52 52 53 53 53 54 54 55 55 55
23 23 24 25 26 27 28 30 31 32 33 34 36 37 39 40 41 42 43 44 46 47 48 49 50 51 51 52 54 54 54 55 55 55 55 55 56 56 57 57 58 58 58
24 24 25 25 26 27 28 29 30 32 33 35 36 38 39 41 43 44 44 45 47 48 49 51 52 53 53 55 56 56 56 57 57 57 57 58 58 59 59 60 60 61 61
25 25 26 27 27 28 29 30 31 32 33 35 37 39 40 42 43 44 45 47 48 50 51 52 54 55 56 57 58 59 58 58 58 59 60 60 60 61 61 62 62 62 63
26 27 27 28 29 29 30 31 32 33 35 36 38 40 41 43 44 46 47 49 50 51 52 54 56 57 58 59 60 61 61 60 60 60 61 62 62 63 63 63 64 64 64
27 28 29 29 30 30 31 32 32 34 35 36 38 40 42 43 45 47 48 50 52 53 54 56 58 59 60 61 62 63 64 64 64 62 61 62 63 64 65 65 66 66 66
29 29 29 30 30 31 31 32 33 34 35 37 38 40 42 44 45 47 49 51 52 54 55 57 59 60 62 63 64 65 66 67 67 67 64 63 64 65 66 67 68 68 68
29 29 29 29 30 31 32 33 34 35 36 38 40 41 43 45 47 49 51 52 54 55 57 59 61 62 64 65 66 67 68 69 70 71 70 68 67 67 68 68 69 69 69